Find Starlink 6350

NORAD ID: 57226 Int'l Des: 2023-094 Owner: SPXS Country: US Constellation: starlink operational
LEOCIRCULAR

現在のビュー

3D地球を読み込み中...

About Starlink 6350

Starlink 6350 (NORAD 57226) is a starlink constellation satellite (v1.5) launched Jul 7, 2023 by SPXS of US. It operates in LEO, CIRCULAR orbit with a mass of 305.00 kg.

次回通過

Passes for default location (London). Set your location on the main map for personalized predictions.

高度履歴

Loading altitude history...

軌道要素

1 57226U 23094J 26265.57283934 -.00000556 00000-0 -10677-4 0 9995
2 57226 43.0055 359.0465 0001504 280.9084 79.1598 15.27575545177228
Epoch: Sep 22, 2026 • Age: 10 hours

現在のステータス

高度 484.0 km
遠地点 / 近地点 N/A
速度 7.63 km/s
衛星直下点 26.49°N, 146.18°E
打ち上げ日 Jul 7, 2023
運用期間 3.2 years
タイプ internet

技術仕様

分類 Payload
質量 305.00 kg
乾燥質量 290.00 kg
長さ 0.20 m
スパン 9.00 m
形状 ? Box + pan
製造者 SPXS
バスタイプ Starlink
フェーズステータス In Orbit
所有者/国 SPXS/US

Most Searched